Regional Weather Roundup
Issued by NWS

Home | Current Version | Previous Version | Text Only | Print | Product List | Glossary On
Versions: 1 2 3 4 5 6 7 8 9 10 11 12 13 14 15 16 17 18 19 20 21 22 23 24 25 26 27 28 29 30 31 32 33 34 35 36 37 38 39 40 41 42 43 44 45 46 47 48 49 50
176
ASUS43 KDMX 302001
RWRIA

WEATHER ROUNDUP FOR IOWA
NATIONAL WEATHER SERVICE DES MOINES IA
300 PM CDT SUN APR 30 2017

NOTE: "FAIR" INDICATES FEW OR NO CLOUDS BELOW 12,000 FEET WITH NO
SIGNIFICANT WEATHER AND/OR OBSTRUCTIONS TO VISIBILITY.

* - THESE STATIONS ARE NOT NWS STATIONS...THUS NOT UNDER NWS
QUALITY CONTROL.  THEY ALSO DO NOT REPORT WEATHER SUCH
AS PRECIPITATION OR FOG.

IAZ001>003-012>014-020>022-031>034-043>046-302100-
   NORTHWEST IOWA

CITY           SKY/WX    TMP DP  RH WIND       PRES   REMARKS
CARROLL *      LGT RAIN  41  41 100 NE28G38   29.57R
CHEROKEE *     CLOUDY    40  38  96 NE16G23   29.68F WCI  31
DENISON *      CLOUDY    41  39  93 NE33G51   29.55F FOG
ORANGE CITY *  CLOUDY    39  37  93 NE16G26   29.71R WCI  30
SHELDON *      CLOUDY    39  36  87 NE32G41   29.70F WCI  27
SIOUX CITY     HVY RAIN  39  37  92 NE28G35   29.64F FOG     WCI  28
SPENCER        CLOUDY    40  37  89 NE29G35   29.72F WCI  29
STORM LAKE *   CLOUDY    39  37  93 NE32G38   29.65F WCI  27
$$

IAZ055>058-069>071-079>083-090>094-302100-
   SOUTHWEST IOWA

CITY           SKY/WX    TMP DP  RH WIND       PRES   REMARKS
ATLANTIC *     HVY RAIN  43  43 100 NE17G26   29.49F VSB 1
AUDUBON *      RAIN      41  37  87 NE28G36   29.53F VSB 3/4
CLARINDA *     CLOUDY    46  46 100 SE7       29.56F FOG
COUNCIL BLFS * MIX PCPN  43  43 100 NE8       29.59S
CRESTON *      LGT RAIN  43  43 100 E24G33    29.50F
HARLAN  *        N/A     41  41 100 NE23G39   29.55S FOG
LAMONI         LGT RAIN  46  45  96 E13G22    29.49F FOG
RED OAK *      LGT RAIN  45  45 100 CALM      29.56R
SHENANDOAH *   PTSUNNY   46  46 100 NE13      29.54F FOG
$$

IAZ047>049-059>061-072>074-084-302100-
   CENTRAL IOWA

CITY           SKY/WX    TMP DP  RH WIND       PRES   REMARKS
AMES           LGT RAIN  43  42  97 NE18G33   29.59F
ANKENY *       MIX PCPN  45  41  87 E15G23    29.62F
BOONE *        LGT RAIN  41  41 100 NE28G36   29.59F
CHARITON *     CLOUDY    45  45 100 E18       29.53F
DES MOINES     CLOUDY    45  42  89 E16G29    29.59F
GRINNELL*      LGT RAIN  43  42  96 E29G36    29.62F
KNOXVILLE *    CLOUDY    45  43  93 E13G20    29.58R
MARSHALLTOWN   RAIN      43  42  97 E20G33    29.66R
NEWTON *       CLOUDY    45  43  93 E16G36    29.59F
PELLA *        CLOUDY    45  44  97 E13G18    29.60S
PERRY *        LGT RAIN  43  41  95 NE24G32   29.57F
$$

IAZ004>006-015-016-023>025-035-036-302100-
   NORTH CENTRAL IOWA

CITY           SKY/WX    TMP DP  RH WIND       PRES   REMARKS
ALGONA *       CLOUDY    43  39  87 NE21G32   29.72F
CLARION *      CLOUDY    43  43 100 E26       29.70F
ESTHERVILLE    CLOUDY    39  38  96 NE28      29.73F WCI  28
FORT DODGE *   CLOUDY    43  36  75 NE21G29   29.70F
MASON CITY     CLOUDY    43  37  79 NE21G28   29.74F
FOREST CITY *  CLOUDY    45  32  61 NE17G25   29.73F
WEBSTER CITY * CLOUDY    43  39  87 NE28G37   29.65F
IOWA FALLS *   CLOUDY    43  40  89 NE18G26   29.70S
$$

IAZ007>011-017>019-026>030-037>042-050>054-066-302100-
   NORTHEAST IOWA

CITY           SKY/WX    TMP DP  RH WIND       PRES   REMARKS
CEDAR RAPIDS   RAIN      44  44 100 E20       29.69F FOG
CHARLES CITY * CLOUDY    45  39  81 E25G32    29.75S
CLINTON *      CLOUDY    47  45  93 E20G25    29.73F
DECORAH *      CLOUDY    43  39  87 NE20G28   29.75F
DUBUQUE        CLOUDY    45  41  86 NE20      29.75F
MONTICELLO *   CLOUDY    46  43  87 NE17G24   29.73F
OELWEIN *      CLOUDY    45  41  87 E20G29    29.71F
WATERLOO       CLOUDY    44  39  82 E20G29    29.70F
$$

IAZ064-065-067-068-078-302100-
   EAST CENTRAL IOWA

CITY           SKY/WX    TMP DP  RH WIND       PRES   REMARKS
DAVENPORT      CLOUDY    47  45  93 E17       29.71F
IOWA CITY      LGT RAIN  47  44  90 NE9G21    29.71F FOG
MUSCATINE *    CLOUDY    48  46  93 E13G20    29.69F
QUAD CITIES    CLOUDY    48  45  89 E18G26    29.70F
$$

IAZ062-063-075>077-085>089-095>099-302100-
   SOUTHEAST IOWA

CITY           SKY/WX    TMP DP  RH WIND       PRES   REMARKS
BURLINGTON     CLOUDY    49  32  52 NE14      29.63F
FAIRFIELD *    CLOUDY    46  45  93 E31G39    29.57F FOG
FORT MADISON * LGT RAIN  48  48 100 NE18      29.61F
KEOKUK *       CLOUDY    50  48  93 E22G29    29.58F
OSKALOOSA *    CLOUDY    45  44  97 E28G33    29.57F
OTTUMWA        LGT RAIN  47  46  97 E23G33    29.58F
WASHINGTON *   LGT RAIN  46  46 100 E20G28    29.68F
$$

ABBREVIATIONS USED IN REMARKS
   TC - TEMPERATURES IN CELSIUS
  WCI - WIND CHILL INDEX
   HX - HEAT INDEX
  VSB - VISIBILITY
$$





USA.gov is the U.S. government's official web portal to all federal, state and local government web resources and services.